When you browse on this site, cookies collect data to enhance your experience and personalize the content and advertising you see.
Visit our Privacy Policy to learn more. By continuing to use the site, you agree to this use of cookies and data.
  • In Czech Republic
  • List of Countries
  • For 7 days
  • Water Temperature
  • Satellite Maps
  • Weather Map
  • Weather Widgets
  • user-avatar
    Login

    Hourly Weather Sydney

    Today, 17 November, Saturday

    Time Temperature Precipitation Wind Pressure Humidity
    00:00 +16°C° 0 mm 1 mps 763 mmHg 90%
    01:00 +16°C° 0 mm 1 mps 762 mmHg 92%
    02:00 +15°C° 0 mm 1 mps 762 mmHg 92%
    03:00 +15°C° 0 mm 2 mps 762 mmHg 93%
    04:00 +15°C° 0 mm 2 mps 762 mmHg 93%
    05:00 +16°C° 0 mm 2 mps 762 mmHg 88%
    06:00 +17°C° 0 mm 2 mps 762 mmHg 82%
    07:00 +19°C° 0 mm 3 mps 763 mmHg 77%
    08:00 +20°C° 0.1 mm 3 mps 763 mmHg 70%
    09:00 +22°C° 0.1 mm 3 mps 763 mmHg 64%
    10:00 +23°C° 0.1 mm 4 mps 763 mmHg 58%
    11:00 +23°C° 0.1 mm 4 mps 763 mmHg 58%
    12:00 +23°C° 0.1 mm 4 mps 763 mmHg 58%
    13:00 +23°C° 0.1 mm 5 mps 763 mmHg 58%
    14:00 +23°C° 0.3 mm 5 mps 763 mmHg 61%
    15:00 +23°C° 0.3 mm 5 mps 763 mmHg 64%
    16:00 +22°C° 0.3 mm 6 mps 763 mmHg 66%
    17:00 +21°C° 0.3 mm 5 mps 764 mmHg 73%
    18:00 +19°C° 0.3 mm 5 mps 764 mmHg 79%
    19:00 +17°C° 0.3 mm 5 mps 765 mmHg 86%
    20:00 +16°C° 0.2 mm 5 mps 765 mmHg 86%
    21:00 +16°C° 0.2 mm 5 mps 766 mmHg 87%
    22:00 +16°C° 0.2 mm 5 mps 766 mmHg 87%
    23:00 +16°C° 0.1 mm 5 mps 766 mmHg 87%

    Tomorrow, 18 November, Sunday

    Time Temperature Precipitation Wind Pressure Humidity
    00:00 +15°C° 0.1 mm 5 mps 766 mmHg 87%
    01:00 +15°C° 0.1 mm 5 mps 766 mmHg 87%
    02:00 +15°C° 0 mm 4 mps 766 mmHg 86%
    03:00 +14°C° 0 mm 4 mps 766 mmHg 85%
    04:00 +14°C° 0 mm 4 mps 766 mmHg 84%
    05:00 +15°C° 0 mm 4 mps 766 mmHg 80%
    06:00 +17°C° 0 mm 3 mps 766 mmHg 75%
    07:00 +18°C° 0 mm 3 mps 767 mmHg 71%
    08:00 +18°C° 0 mm 3 mps 767 mmHg 67%
    09:00 +19°C° 0 mm 3 mps 767 mmHg 63%
    10:00 +19°C° 0 mm 3 mps 767 mmHg 59%
    11:00 +20°C° 0 mm 4 mps 767 mmHg 57%
    12:00 +20°C° 0 mm 4 mps 766 mmHg 56%
    13:00 +21°C° 0 mm 4 mps 766 mmHg 54%
    14:00 +21°C° 0 mm 4 mps 766 mmHg 54%
    15:00 +21°C° 0 mm 4 mps 766 mmHg 53%
    16:00 +21°C° 0 mm 4 mps 766 mmHg 53%
    17:00 +20°C° 0 mm 4 mps 766 mmHg 59%
    18:00 +18°C° 0 mm 3 mps 766 mmHg 66%
    19:00 +17°C° 0 mm 3 mps 767 mmHg 72%
    20:00 +17°C° 0 mm 3 mps 767 mmHg 75%
    21:00 +16°C° 0 mm 3 mps 767 mmHg 77%
    22:00 +16°C° 0 mm 2 mps 767 mmHg 80%
    23:00 +16°C° 0 mm 2 mps 767 mmHg 81%

    Day after tomorrow, 19 November, Monday

    Time Temperature Precipitation Wind Pressure Humidity
    00:00 +16°C° 0 mm 2 mps 766 mmHg 82%
    01:00 +15°C° 0 mm 2 mps 766 mmHg 83%
    02:00 +15°C° 0 mm 2 mps 766 mmHg 83%
    03:00 +15°C° 0 mm 2 mps 766 mmHg 84%
    04:00 +15°C° 0 mm 2 mps 766 mmHg 84%
    05:00 +16°C° 0 mm 2 mps 766 mmHg 80%
    06:00 +17°C° 0 mm 2 mps 766 mmHg 75%
    07:00 +19°C° 0 mm 2 mps 766 mmHg 71%
    08:00 +19°C° 0 mm 2 mps 766 mmHg 65%
    09:00 +20°C° 0 mm 2 mps 766 mmHg 59%
    10:00 +21°C° 0 mm 3 mps 766 mmHg 54%
    11:00 +22°C° 0 mm 3 mps 765 mmHg 50%
    12:00 +24°C° 0 mm 3 mps 764 mmHg 46%
    13:00 +25°C° 0 mm 3 mps 764 mmHg 42%
    14:00 +25°C° 0 mm 3 mps 763 mmHg 43%
    15:00 +25°C° 0 mm 4 mps 763 mmHg 43%
    16:00 +25°C° 0 mm 4 mps 762 mmHg 43%
    17:00 +22°C° 0 mm 4 mps 763 mmHg 49%
    18:00 +20°C° 0 mm 4 mps 763 mmHg 56%
    19:00 +18°C° 0 mm 4 mps 763 mmHg 62%
    20:00 +18°C° 0 mm 4 mps 763 mmHg 66%
    21:00 +17°C° 0 mm 3 mps 763 mmHg 70%
    22:00 +16°C° 0 mm 3 mps 764 mmHg 74%
    23:00 +14°C° 0 mm 3 mps 763 mmHg 77%

    20 November, Tuesday

    Time Temperature Precipitation Wind Pressure Humidity
    00:00 +14°C° 0 mm 3 mps 763 mmHg 80%
    01:00 +14°C° 0 mm 2 mps 762 mmHg 83%
    02:00 +13°C° 0 mm 3 mps 762 mmHg 84%
    03:00 +13°C° 0 mm 3 mps 761 mmHg 86%
    04:00 +12°C° 0 mm 3 mps 761 mmHg 87%
    05:00 +14°C° 0 mm 3 mps 761 mmHg 79%
    06:00 +17°C° 0 mm 3 mps 761 mmHg 71%
    07:00 +19°C° 0 mm 3 mps 761 mmHg 63%
    08:00 +21°C° 0 mm 3 mps 761 mmHg 54%
    09:00 +25°C° 0 mm 4 mps 760 mmHg 45%
    10:00 +27°C° 0 mm 4 mps 760 mmHg 37%
    11:00 +29°C° 0 mm 5 mps 759 mmHg 34%
    12:00 +30°C° 0 mm 5 mps 758 mmHg 31%
    13:00 +33°C° 0 mm 6 mps 757 mmHg 27%
    14:00 +32°C° 0 mm 6 mps 756 mmHg 31%
    15:00 +30°C° 0 mm 7 mps 755 mmHg 35%
    16:00 +29°C° 0 mm 7 mps 754 mmHg 38%
    17:00 +27°C° 0 mm 7 mps 754 mmHg 46%
    18:00 +26°C° 0 mm 7 mps 754 mmHg 54%
    19:00 +23°C° 0 mm 7 mps 754 mmHg 62%
    20:00 +22°C° 0.1 mm 7 mps 754 mmHg 68%
    21:00 +21°C° 0.1 mm 6 mps 754 mmHg 73%
    22:00 +20°C° 0.1 mm 5 mps 754 mmHg 79%
    23:00 +20°C° 0.6 mm 4 mps 753 mmHg 83%

    21 November, Wednesday

    Time Temperature Precipitation Wind Pressure Humidity
    00:00 +20°C° 0.6 mm 4 mps 752 mmHg 87%
    01:00 +19°C° 0.6 mm 3 mps 751 mmHg 91%
    02:00 +19°C° 0.7 mm 4 mps 751 mmHg 92%
    03:00 +19°C° 0.7 mm 4 mps 750 mmHg 93%
    04:00 +19°C° 0.7 mm 4 mps 750 mmHg 94%
    05:00 +20°C° 0.5 mm 4 mps 750 mmHg 91%
    06:00 +21°C° 0.5 mm 5 mps 750 mmHg 89%
    07:00 +22°C° 0.5 mm 5 mps 750 mmHg 86%
    08:00 +25°C° 0.1 mm 5 mps 749 mmHg 74%
    09:00 +28°C° 0.1 mm 5 mps 749 mmHg 62%
    10:00 +32°C° 0.1 mm 5 mps 749 mmHg 49%
    11:00 +30°C° 0.5 mm 5 mps 748 mmHg 57%
    12:00 +28°C° 0.5 mm 5 mps 747 mmHg 64%
    13:00 +27°C° 0.5 mm 6 mps 747 mmHg 71%
    14:00 +27°C° 1.4 mm 5 mps 746 mmHg 73%
    15:00 +27°C° 1.4 mm 5 mps 746 mmHg 74%
    16:00 +27°C° 1.4 mm 5 mps 746 mmHg 76%
    17:00 +25°C° 0.9 mm 5 mps 746 mmHg 78%
    18:00 +22°C° 0.9 mm 4 mps 746 mmHg 80%
    19:00 +20°C° 0.9 mm 4 mps 747 mmHg 83%
    20:00 +19°C° 0 mm 4 mps 747 mmHg 82%
    21:00 +18°C° 0 mm 4 mps 748 mmHg 81%
    22:00 +17°C° 0 mm 4 mps 748 mmHg 81%
    23:00 +15°C° 0 mm 4 mps 748 mmHg 81%

    22 November, Thursday

    Time Temperature Precipitation Wind Pressure Humidity
    00:00 +15°C° 0 mm 4 mps 748 mmHg 81%
    01:00 +14°C° 0 mm 4 mps 748 mmHg 81%
    02:00 +14°C° 0 mm 4 mps 748 mmHg 79%
    03:00 +13°C° 0 mm 5 mps 748 mmHg 77%
    04:00 +13°C° 0 mm 5 mps 748 mmHg 75%
    05:00 +14°C° 0 mm 5 mps 748 mmHg 67%
    06:00 +15°C° 0 mm 5 mps 749 mmHg 58%
    07:00 +16°C° 0 mm 5 mps 749 mmHg 50%
    08:00 +17°C° 0 mm 6 mps 749 mmHg 43%
    09:00 +18°C° 0 mm 7 mps 749 mmHg 35%
    10:00 +20°C° 0 mm 8 mps 749 mmHg 28%
    11:00 +21°C° 0 mm 9 mps 748 mmHg 25%
    12:00 +21°C° 0 mm 9 mps 748 mmHg 23%
    13:00 +22°C° 0 mm 9 mps 747 mmHg 20%
    14:00 +21°C° 0 mm 9 mps 747 mmHg 23%
    15:00 +21°C° 0 mm 10 mps 748 mmHg 25%
    16:00 +19°C° 0 mm 10 mps 748 mmHg 28%
    17:00 +18°C° 0 mm 10 mps 748 mmHg 33%
    18:00 +16°C° 0 mm 9 mps 749 mmHg 38%
    19:00 +13°C° 0 mm 8 mps 750 mmHg 43%
    20:00 +13°C° 0 mm 8 mps 750 mmHg 42%
    21:00 +14°C° 0 mm 7 mps 750 mmHg 42%
    22:00 +14°C° 0 mm 7 mps 750 mmHg 41%
    23:00 +12°C° 0 mm 7 mps 750 mmHg 41%
    Show more